SCP
0 0 0 0 0 0 0 0 0 0 0 0 0 0 0 0 0 0 0 0 0 0 0 0 0 0 0 0 0 0 0 0 0 0 0 0 0 0 0 0 0 0 0 0
0 0 0 0 0 0 0 0 0 0 0 0 0 0 0 0 0 0 0 0 0 0 0 0 0 0 0 0 0 0 0 0 0 0 0 0 0 0 0 0 0 0 0 0
0 0 0 0 0 0 0 0 0 0 0 0 0 0 0 0 0 0 0 0 0 0 0 0 0 0 0 0 0 0 0 0 0 0 0 0 0 0 0 0 0 0 0 0
0 0 0 0 0 0 0 0 0 0 0 0 0 0 0 0 0 0 0 0 0 0 0 0 0 0 0 0 0 0 0 0 0 0 0 0 0 0 0 0 0 0 0 0
0 0 0 0 0 0 0 0 0 0 0 0 0 0 -0 -0 0 0 0 0 0 0 0 0 0 0 0 0 0 0 0 0 0 0 0 0 0 0 0 0 0 0 0 0
0 0 0 0 0 0 0 0 0 0 0 0 0 0 -0 0 0 0 0 0 0 0 0 0 0 0 0 0 0 0 0 0 0 0 0 0 0 0 0 0 0 0 0 0
0 0 0 0 0 0 0 0 0 0 0 0 0 0 0 0 0 0 0 0 0 0 0 0 0 0 0 0 0 0 0 0 0 0 0 0 0 0 0 0 0 0 0 0
0 0 0 0 0 0 0 0 0 0 0 0 0 0 0 0 0 0 0 0 0 0 0 0 0 0 0 0 0 0 0 0 0 0 0 0 0 0 0 0 0 0 0 0
0 0 0 0 0 0 0 0 0 0 0 0 0 0 0 0 0 0 0 0 0 0 0 0 0 0 0 0 0 0 0 0 0 0 0 0 0 0 0 0 0 0 0 0
0 0 0 0 0 0 0 0 0 0 0 0 0 0 0 0 0 0 0 0 0 0 0 0 0 0 0 0 0 0 0 0 0 0 0 0 0 0 0 0 0 0 0 0
0 0 0 0 0 0 0 0 0 0 0 0 0 0 0 0 0 0 0 0 0 0 0 0 0 0 0 0 0 0 0 0 0 0 0 0 0 0 0 0 0 0 0 0
0 0 0 0 0 0 0 0 0 0 0 0 0 0 0 0 0 0 0 0 0 0 0 0 0 0 0 0 0 0 0 0 0 0 0 0 0 0 0 0 0 0 0 0
0 0 0 0 0 0 0 0 0 0 0 0 0 0 0 0 0 0 0 0 0 0 0 0 0 0 0 0 0 0 0 0 0 0 0 0 0 0 0 0 0 0 0 0
0 0 0 0 0 0 0 0 0 0 0 0 0 0 0 0 0 0 0 0 0 0 0 0 0 0 0 0 0 0 0 0 0 0 0 0 0 0 0 0 0 0 0 0
0 0 0 0 0 0 0 0 0 0 0 0 0 0 0 0 0 0 0 0 0 0 0 0 0 0 0 0 0 0 0 0 0 0 0 0 0 0 0 0 0 0 0 0
0 0 0 0 0 0 0 0 0 0 0 0 0 0 0 0 0 0 0 0 0 0 0 0 0 0 0 0 0 0 0 0 0 0 0 0 0 0 0 0 0 0 0 0
0 0 0 0 0 0 0 0 0 0 0 0 0 -0 0 0 0 0 0 0 0 0 0 0 0 0 0 0 0 0 0 0 0 0 0 0 0 0 0 0 0 0 0 0
0 0 0 0 0 0 0 0 0 0 0 0 0 0 0 0 0 0 0 0 0 0 0 0 0 0 0 0 0 0 0 0 0 0 0 0 0 0 0 0 0 0 0 0
0 0 0 0 0 0 0 0 0 0 0 0 0 0 0 0 0 0 0 0 0 0 0 0 0 0 0 0 0 0 0 0 0 0 0 0 0 0 0 0 0 0 0 0
0 0 0 0 0 0 0 0 0 0 0 0 0 0 0 0 0 0 0 0 0 0 0 0 0 0 0 0 0 0 0 0 0 0 0 0 0 0 0 0 0 0 0 0
0 0 0 0 0 0 0 0 0 0 0 0 0 0 0 0 0 0 0 0 0 0 0 0 0 0 0 0 0 0 0 0 0 0 0 0 0 0 0 0 0 0 0 0
0 0 0 0 0 0 0 0 0 0 0 0 0 0 0 0 0 0 0 0 0 0 0 0 0 0 0 0 0 0 0 0 0 0 0 0 0 0 0 0 0 0 0 0
0 0 0 0 0 0 0 0 0 0 0 0 0 0 0 0 0 0 0 0 0 0 0 0 0 0 0 0 0 0 0 0 0 0 0 0 0 0 0 0 0 0 0 0
0 0 0 0 0 0 0 0 0 0 0 0 0 0 0 0 0 0 0 0 0 0 0 0 0 0 0 0 0 0 0 0 0 0 0 0 0 0 0 0 0 0 0 0
0 0 0 0 0 0 0 0 0 0 0 0 0 0 0 0 0 0 0 0 0 0 0 0 0 0 0 0 0 0 0 0 0 0 0 0 0 0 0 0 0 0 0 0
0 0 0 0 0 0 0 0 0 0 0 0 0 0 0 0 0 0 0 0 0 0 0 0 0 0 0 0 0 0 0 0 0 0 0 0 0 0 0 0 0 0 0 0
Wind_Speed_500mb
16 12 25 36 32 21 24 23 23 12 19 12 16 17 20 38 42 41 37 32 32 31 36 43 50 55 60 61 67 63 66 65 68 70 65 63 64 58 54 53 52 49 47 45
12 30 28 26 25 24 19 23 25 9 18 6 10 23 17 25 32 42 41 42 46 43 36 45 50 54 61 67 70 64 68 67 70 73 70 67 64 64 61 58 60 58 54 50
32 16 23 31 23 28 11 11 11 10 11 1 9 19 24 23 59 51 51 57 57 58 54 49 52 58 59 69 71 71 73 75 73 75 72 69 65 65 66 65 65 65 59 55
6 19 35 33 32 26 26 15 9 18 10 5 11 10 13 13 11 35 52 54 56 57 60 61 54 60 63 68 72 72 74 78 77 76 78 78 79 80 77 72 70 68 64 60
22 26 38 36 32 32 10 13 15 9 3 10 10 6 11 14 13 18 34 54 57 58 57 61 69 64 70 68 67 72 75 77 79 79 80 80 82 81 75 75 73 70 65 67
15 34 17 19 18 14 17 20 15 11 2 11 17 14 9 11 16 13 23 33 26 35 43 43 54 60 71 69 69 68 75 80 82 83 84 85 87 86 82 83 82 79 73 68
18 27 11 11 18 10 20 27 6 3 4 12 9 12 21 13 3 2 8 8 12 15 19 25 34 47 58 65 69 71 69 75 82 86 88 90 89 88 89 89 87 84 82 75
18 8 30 24 26 19 28 21 10 14 11 7 1 13 11 17 8 12 22 26 21 17 18 19 21 31 45 56 63 68 70 71 74 84 91 93 92 92 93 92 91 90 89 85
23 8 28 40 29 29 29 24 5 12 4 6 10 12 15 17 17 14 18 17 24 18 12 14 18 17 25 41 48 56 66 70 71 76 85 93 96 97 97 96 93 91 89 89
22 15 22 9 16 5 25 19 9 3 13 10 9 10 13 8 16 19 16 28 26 23 14 6 2 4 11 11 25 35 45 55 62 71 78 85 92 97 99 96 94 92 91 89
38 12 11 14 14 31 12 20 10 11 7 9 2 11 14 24 21 19 21 26 16 15 11 11 6 14 23 25 21 19 24 37 52 62 70 81 89 92 94 97 95 94 90 84
8 13 16 14 7 11 8 18 11 11 10 4 7 12 11 11 15 37 31 26 12 3 5 8 8 29 36 35 27 29 33 33 35 46 60 70 80 85 84 90 92 80 78 81
19 10 19 11 10 8 27 29 29 3 7 12 12 15 12 20 21 28 22 20 11 5 17 25 35 36 43 34 32 39 42 42 42 42 49 59 67 79 90 89 74 74 75 79
19 11 12 16 16 23 15 33 34 17 5 9 17 40 2 18 18 18 20 7 5 17 29 36 36 39 44 38 49 50 51 52 49 47 44 49 53 61 71 79 85 79 77 82
12 10 11 18 25 31 40 48 38 39 42 27 45 35 40 10 10 16 10 15 17 23 41 41 42 46 49 51 49 50 52 53 49 49 45 42 44 46 56 60 63 72 76 76
19 8 14 9 17 16 26 32 42 46 56 39 29 37 20 31 28 18 19 24 35 39 42 44 50 47 51 47 49 48 51 49 47 45 45 39 40 44 50 53 55 55 64 70
19 11 10 7 16 16 3 46 41 43 46 54 38 69 10 11 10 24 33 40 46 42 45 55 55 52 58 57 62 52 56 51 50 44 45 42 42 45 48 50 53 56 59 65
24 17 6 9 8 5 22 32 44 53 47 49 49 47 16 36 41 55 65 61 51 52 51 53 52 53 52 61 63 55 55 48 46 42 43 42 44 45 47 48 50 54 58 64
19 12 8 16 20 8 15 13 42 28 33 44 53 50 49 54 47 56 44 45 55 53 55 55 56 54 54 52 44 37 40 42 43 42 42 39 41 42 42 42 41 40 43 51
11 10 9 8 13 24 6 25 37 13 29 31 53 47 44 32 22 10 25 28 30 30 33 33 26 22 25 29 30 28 31 36 40 39 39 40 38 38 37 37 34 33 30 33
23 14 14 8 7 13 12 16 50 23 13 42 63 57 50 22 39 16 22 21 18 21 19 21 22 20 20 21 24 26 30 34 33 36 37 37 39 37 36 34 32 32 37 37
21 29 18 5 5 23 26 20 30 15 15 6 24 47 40 50 43 37 35 31 24 15 14 12 11 11 15 21 24 27 28 29 30 31 33 34 36 37 38 35 33 35 39 43
8 17 19 24 13 3 69 47 47 41 19 20 32 30 20 27 32 33 33 28 19 13 10 10 11 14 19 24 30 31 29 29 31 32 31 30 31 36 37 35 36 37 43 47
4 9 9 10 10 15 37 21 48 35 34 36 38 27 26 24 28 29 28 25 17 13 10 8 12 16 17 19 21 24 28 31 29 25 24 24 27 30 32 33 33 37 46 51
11 17 15 4 3 14 26 59 47 53 48 37 36 32 30 32 33 30 28 23 19 15 11 6 9 10 9 10 13 17 20 23 24 26 22 19 17 20 24 27 30 35 42 47
10 18 21 11 34 21 34 70 65 61 59 50 47 39 38 36 34 33 30 25 19 15 11 8 5 2 6 10 12 13 15 17 18 17 16 15 13 14 18 23 29 32 36 38
Wind_Direction_500mb
167 167 202 188 201 223 170 173 215 231 133 157 234 241 241 232 217 219 229 243 243 236 216 224 222 220 215 218 224 225 223 219 220 226 225 223 228 232 228 232 238 240 239 236
129 211 198 200 216 211 230 178 196 110 96 133 270 276 267 253 237 213 216 229 234 231 229 219 224 226 221 220 224 224 222 227 226 228 233 232 235 238 240 238 240 242 244 240
173 180 205 214 200 216 213 189 216 146 112 327 301 281 239 232 238 237 232 233 234 231 227 223 219 230 230 226 224 225 221 228 230 231 232 234 236 239 240 237 238 241 242 242
184 206 188 209 209 191 199 193 74 110 106 209 148 283 317 304 232 220 229 234 236 234 234 226 228 230 239 235 230 229 225 227 233 232 232 232 233 235 240 241 243 244 243 240
182 202 179 203 202 180 205 153 106 88 328 319 234 269 267 223 247 237 205 219 229 237 239 239 229 234 243 244 239 233 229 227 231 234 236 236 236 241 244 246 245 248 243 241
142 187 207 198 184 170 121 103 81 62 71 256 214 214 226 226 223 218 209 220 230 233 243 242 237 234 237 243 244 240 233 232 232 233 238 238 241 243 240 241 243 247 245 241
134 173 119 199 151 88 137 138 98 157 185 226 57 210 228 282 272 110 330 164 190 249 249 245 241 238 239 241 243 243 239 236 236 234 236 242 245 246 246 246 247 246 247 244
144 181 163 188 188 171 184 161 145 186 186 209 62 238 250 218 273 213 225 232 227 255 255 235 240 240 245 247 245 248 246 243 240 238 240 243 247 247 248 247 248 249 253 253
161 121 174 171 169 151 193 207 99 97 359 62 193 253 292 247 255 230 238 244 243 253 242 252 261 273 243 244 254 252 250 249 248 246 245 243 245 247 248 250 248 248 251 256
152 113 175 135 112 13 188 152 125 171 161 231 241 232 223 110 218 241 239 240 258 226 189 85 338 336 357 295 267 262 254 251 251 251 249 249 248 248 251 251 250 249 250 251
138 104 141 143 195 179 155 181 197 128 197 170 117 255 199 214 201 201 170 124 111 148 165 311 117 34 1 349 333 309 288 274 264 254 246 245 248 250 249 250 251 250 248 245
104 114 145 173 136 200 206 172 184 175 204 240 103 262 142 91 99 105 115 123 123 288 339 52 337 313 322 330 323 323 317 304 290 266 257 252 242 244 247 248 249 245 238 238
162 132 124 131 345 165 209 187 197 132 88 188 150 257 227 181 122 130 131 143 147 339 317 311 315 311 317 319 316 313 312 306 300 286 267 257 251 245 242 240 237 237 237 239
97 134 145 166 139 124 169 191 197 202 133 175 217 247 219 127 155 168 170 186 233 276 291 301 304 310 314 309 311 311 309 306 299 290 275 267 262 257 252 246 243 239 235 237
117 127 112 134 146 160 176 181 184 201 220 207 234 237 226 213 205 208 206 256 267 266 276 286 298 301 302 303 308 307 309 303 295 290 280 274 268 262 259 259 252 246 239 238
170 133 108 48 136 138 175 188 194 202 213 219 237 261 117 214 225 212 238 243 238 250 259 273 281 296 299 305 310 306 313 303 293 286 280 271 270 268 265 262 260 255 246 243
150 122 118 149 124 104 27 203 193 212 217 215 217 238 238 240 231 249 254 257 258 260 264 268 277 285 293 291 302 297 305 301 294 289 281 279 271 268 267 265 263 258 247 240
138 117 83 138 118 146 242 176 203 207 216 217 236 248 209 240 253 255 256 263 269 269 274 274 275 281 279 287 293 293 295 290 286 285 280 277 276 274 271 266 261 257 253 247
143 117 111 146 196 279 241 185 193 184 229 216 228 242 246 247 256 260 260 269 271 276 279 277 280 281 282 280 283 288 289 282 285 283 278 271 272 276 274 273 270 266 258 251
154 104 115 146 151 219 196 171 157 129 255 201 218 230 233 230 238 225 227 242 244 261 264 269 274 280 293 288 280 279 282 282 283 288 284 273 269 271 272 272 271 267 265 254
168 172 186 181 197 261 194 158 155 170 245 201 207 219 228 217 232 220 219 215 252 269 264 272 278 286 293 296 290 286 280 280 279 274 272 266 262 263 264 262 264 256 251 248
169 166 190 120 142 244 174 142 168 197 208 197 201 217 223 238 240 236 230 233 239 238 254 271 283 304 316 317 316 308 300 291 284 276 272 265 259 259 258 256 255 248 247 244
135 191 171 192 200 242 177 182 192 178 179 178 173 173 186 196 207 206 216 217 207 212 231 254 286 310 319 320 319 317 313 307 300 292 285 279 267 259 258 251 250 242 242 240
315 144 161 96 232 159 200 182 186 189 197 204 205 203 193 199 191 194 189 195 203 204 217 254 289 299 308 312 315 316 315 314 312 306 301 294 282 270 262 258 254 252 251 247
187 144 158 193 21 110 190 205 200 217 229 224 222 218 212 203 192 188 200 208 203 206 212 237 279 290 303 323 336 340 333 328 318 310 309 305 291 278 268 262 258 258 256 254
188 171 186 211 172 168 204 200 210 227 233 228 223 209 205 209 206 194 206 199 196 187 172 167 176 66 31 26 22 22 7 355 338 321 307 301 297 285 271 266 264 262 259 259
Wind_Speed_850mb
16 12 25 36 32 21 24 23 23 12 19 12 16 17 20 38 42 41 37 32 32 31 36 43 50 55 60 61 67 63 66 65 68 70 65 63 64 58 54 53 52 49 47 45
12 30 28 26 25 24 19 23 25 9 18 6 10 23 17 25 32 42 41 42 46 43 36 45 50 54 61 67 70 64 68 67 70 73 70 67 64 64 61 58 60 58 54 50
32 16 23 31 23 28 11 11 11 10 11 1 9 19 24 23 59 51 51 57 57 58 54 49 52 58 59 69 71 71 73 75 73 75 72 69 65 65 66 65 65 65 59 55
6 19 35 33 32 26 26 15 9 18 10 5 11 10 13 13 11 35 52 54 56 57 60 61 54 60 63 68 72 72 74 78 77 76 78 78 79 80 77 72 70 68 64 60
22 26 38 36 32 32 10 13 15 9 3 10 10 6 11 14 13 18 34 54 57 58 57 61 69 64 70 68 67 72 75 77 79 79 80 80 82 81 75 75 73 70 65 67
15 34 17 19 18 14 17 20 15 11 2 11 17 14 9 11 16 13 23 33 26 35 43 43 54 60 71 69 69 68 75 80 82 83 84 85 87 86 82 83 82 79 73 68
18 27 11 11 18 10 20 27 6 3 4 12 9 12 21 13 3 2 8 8 12 15 19 25 34 47 58 65 69 71 69 75 82 86 88 90 89 88 89 89 87 84 82 75
18 8 30 24 26 19 28 21 10 14 11 7 1 13 11 17 8 12 22 26 21 17 18 19 21 31 45 56 63 68 70 71 74 84 91 93 92 92 93 92 91 90 89 85
23 8 28 40 29 29 29 24 5 12 4 6 10 12 15 17 17 14 18 17 24 18 12 14 18 17 25 41 48 56 66 70 71 76 85 93 96 97 97 96 93 91 89 89
22 15 22 9 16 5 25 19 9 3 13 10 9 10 13 8 16 19 16 28 26 23 14 6 2 4 11 11 25 35 45 55 62 71 78 85 92 97 99 96 94 92 91 89
38 12 11 14 14 31 12 20 10 11 7 9 2 11 14 24 21 19 21 26 16 15 11 11 6 14 23 25 21 19 24 37 52 62 70 81 89 92 94 97 95 94 90 84
8 13 16 14 7 11 8 18 11 11 10 4 7 12 11 11 15 37 31 26 12 3 5 8 8 29 36 35 27 29 33 33 35 46 60 70 80 85 84 90 92 80 78 81
19 10 19 11 10 8 27 29 29 3 7 12 12 15 12 20 21 28 22 20 11 5 17 25 35 36 43 34 32 39 42 42 42 42 49 59 67 79 90 89 74 74 75 79
19 11 12 16 16 23 15 33 34 17 5 9 17 40 2 18 18 18 20 7 5 17 29 36 36 39 44 38 49 50 51 52 49 47 44 49 53 61 71 79 85 79 77 82
12 10 11 18 25 31 40 48 38 39 42 27 45 35 40 10 10 16 10 15 17 23 41 41 42 46 49 51 49 50 52 53 49 49 45 42 44 46 56 60 63 72 76 76
19 8 14 9 17 16 26 32 42 46 56 39 29 37 20 31 28 18 19 24 35 39 42 44 50 47 51 47 49 48 51 49 47 45 45 39 40 44 50 53 55 55 64 70
19 11 10 7 16 16 3 46 41 43 46 54 38 69 10 11 10 24 33 40 46 42 45 55 55 52 58 57 62 52 56 51 50 44 45 42 42 45 48 50 53 56 59 65
24 17 6 9 8 5 22 32 44 53 47 49 49 47 16 36 41 55 65 61 51 52 51 53 52 53 52 61 63 55 55 48 46 42 43 42 44 45 47 48 50 54 58 64
19 12 8 16 20 8 15 13 42 28 33 44 53 50 49 54 47 56 44 45 55 53 55 55 56 54 54 52 44 37 40 42 43 42 42 39 41 42 42 42 41 40 43 51
11 10 9 8 13 24 6 25 37 13 29 31 53 47 44 32 22 10 25 28 30 30 33 33 26 22 25 29 30 28 31 36 40 39 39 40 38 38 37 37 34 33 30 33
23 14 14 8 7 13 12 16 50 23 13 42 63 57 50 22 39 16 22 21 18 21 19 21 22 20 20 21 24 26 30 34 33 36 37 37 39 37 36 34 32 32 37 37
21 29 18 5 5 23 26 20 30 15 15 6 24 47 40 50 43 37 35 31 24 15 14 12 11 11 15 21 24 27 28 29 30 31 33 34 36 37 38 35 33 35 39 43
8 17 19 24 13 3 69 47 47 41 19 20 32 30 20 27 32 33 33 28 19 13 10 10 11 14 19 24 30 31 29 29 31 32 31 30 31 36 37 35 36 37 43 47
4 9 9 10 10 15 37 21 48 35 34 36 38 27 26 24 28 29 28 25 17 13 10 8 12 16 17 19 21 24 28 31 29 25 24 24 27 30 32 33 33 37 46 51
11 17 15 4 3 14 26 59 47 53 48 37 36 32 30 32 33 30 28 23 19 15 11 6 9 10 9 10 13 17 20 23 24 26 22 19 17 20 24 27 30 35 42 47
10 18 21 11 34 21 34 70 65 61 59 50 47 39 38 36 34 33 30 25 19 15 11 8 5 2 6 10 12 13 15 17 18 17 16 15 13 14 18 23 29 32 36 38
Wind_Direction_850mb
167 167 202 188 201 223 170 173 215 231 133 157 234 241 241 232 217 219 229 243 243 236 216 224 222 220 215 218 224 225 223 219 220 226 225 223 228 232 228 232 238 240 239 236
129 211 198 200 216 211 230 178 196 110 96 133 270 276 267 253 237 213 216 229 234 231 229 219 224 226 221 220 224 224 222 227 226 228 233 232 235 238 240 238 240 242 244 240
173 180 205 214 200 216 213 189 216 146 112 327 301 281 239 232 238 237 232 233 234 231 227 223 219 230 230 226 224 225 221 228 230 231 232 234 236 239 240 237 238 241 242 242
184 206 188 209 209 191 199 193 74 110 106 209 148 283 317 304 232 220 229 234 236 234 234 226 228 230 239 235 230 229 225 227 233 232 232 232 233 235 240 241 243 244 243 240
182 202 179 203 202 180 205 153 106 88 328 319 234 269 267 223 247 237 205 219 229 237 239 239 229 234 243 244 239 233 229 227 231 234 236 236 236 241 244 246 245 248 243 241
142 187 207 198 184 170 121 103 81 62 71 256 214 214 226 226 223 218 209 220 230 233 243 242 237 234 237 243 244 240 233 232 232 233 238 238 241 243 240 241 243 247 245 241
134 173 119 199 151 88 137 138 98 157 185 226 57 210 228 282 272 110 330 164 190 249 249 245 241 238 239 241 243 243 239 236 236 234 236 242 245 246 246 246 247 246 247 244
144 181 163 188 188 171 184 161 145 186 186 209 62 238 250 218 273 213 225 232 227 255 255 235 240 240 245 247 245 248 246 243 240 238 240 243 247 247 248 247 248 249 253 253
161 121 174 171 169 151 193 207 99 97 359 62 193 253 292 247 255 230 238 244 243 253 242 252 261 273 243 244 254 252 250 249 248 246 245 243 245 247 248 250 248 248 251 256
152 113 175 135 112 13 188 152 125 171 161 231 241 232 223 110 218 241 239 240 258 226 189 85 338 336 357 295 267 262 254 251 251 251 249 249 248 248 251 251 250 249 250 251
138 104 141 143 195 179 155 181 197 128 197 170 117 255 199 214 201 201 170 124 111 148 165 311 117 34 1 349 333 309 288 274 264 254 246 245 248 250 249 250 251 250 248 245
104 114 145 173 136 200 206 172 184 175 204 240 103 262 142 91 99 105 115 123 123 288 339 52 337 313 322 330 323 323 317 304 290 266 257 252 242 244 247 248 249 245 238 238
162 132 124 131 345 165 209 187 197 132 88 188 150 257 227 181 122 130 131 143 147 339 317 311 315 311 317 319 316 313 312 306 300 286 267 257 251 245 242 240 237 237 237 239
97 134 145 166 139 124 169 191 197 202 133 175 217 247 219 127 155 168 170 186 233 276 291 301 304 310 314 309 311 311 309 306 299 290 275 267 262 257 252 246 243 239 235 237
117 127 112 134 146 160 176 181 184 201 220 207 234 237 226 213 205 208 206 256 267 266 276 286 298 301 302 303 308 307 309 303 295 290 280 274 268 262 259 259 252 246 239 238
170 133 108 48 136 138 175 188 194 202 213 219 237 261 117 214 225 212 238 243 238 250 259 273 281 296 299 305 310 306 313 303 293 286 280 271 270 268 265 262 260 255 246 243
150 122 118 149 124 104 27 203 193 212 217 215 217 238 238 240 231 249 254 257 258 260 264 268 277 285 293 291 302 297 305 301 294 289 281 279 271 268 267 265 263 258 247 240
138 117 83 138 118 146 242 176 203 207 216 217 236 248 209 240 253 255 256 263 269 269 274 274 275 281 279 287 293 293 295 290 286 285 280 277 276 274 271 266 261 257 253 247
143 117 111 146 196 279 241 185 193 184 229 216 228 242 246 247 256 260 260 269 271 276 279 277 280 281 282 280 283 288 289 282 285 283 278 271 272 276 274 273 270 266 258 251
154 104 115 146 151 219 196 171 157 129 255 201 218 230 233 230 238 225 227 242 244 261 264 269 274 280 293 288 280 279 282 282 283 288 284 273 269 271 272 272 271 267 265 254
168 172 186 181 197 261 194 158 155 170 245 201 207 219 228 217 232 220 219 215 252 269 264 272 278 286 293 296 290 286 280 280 279 274 272 266 262 263 264 262 264 256 251 248
169 166 190 120 142 244 174 142 168 197 208 197 201 217 223 238 240 236 230 233 239 238 254 271 283 304 316 317 316 308 300 291 284 276 272 265 259 259 258 256 255 248 247 244
135 191 171 192 200 242 177 182 192 178 179 178 173 173 186 196 207 206 216 217 207 212 231 254 286 310 319 320 319 317 313 307 300 292 285 279 267 259 258 251 250 242 242 240
315 144 161 96 232 159 200 182 186 189 197 204 205 203 193 199 191 194 189 195 203 204 217 254 289 299 308 312 315 316 315 314 312 306 301 294 282 270 262 258 254 252 251 247
187 144 158 193 21 110 190 205 200 217 229 224 222 218 212 203 192 188 200 208 203 206 212 237 279 290 303 323 336 340 333 328 318 310 309 305 291 278 268 262 258 258 256 254
188 171 186 211 172 168 204 200 210 227 233 228 223 209 205 209 206 194 206 199 196 187 172 167 176 66 31 26 22 22 7 355 338 321 307 301 297 285 271 266 264 262 259 259